Location: Keppel Henge
(44.7900°N, 80.9447°W)
Time: 10:20:45
(UTC-05:00)

Vanguard 1 Rocket - Pass Details

Date: 31 October 2017
Orbit: 655 x 4222 km, 34.3° (Epoch: 21 November)

Event Time Altitude Azimuth Distance (km) Brightness Sun altitude
Rises 08:17:53 0° 262° (W) 5,857 11.0 2.0°
Reaches altitude 10° 08:22:48 10° 256° (WSW) 4,238 10.3 2.8°
Maximum altitude 08:31:42 36° 195° (SSW) 1,773 9.1 4.2°
Drops below altitude 10° 08:37:02 10° 129° (SE) 2,513 11.7 5.1°
Sets 08:39:13 0° 119° (ESE) 3,251 13.2 5.4°
